datetime,max air temp
2001-09-04,24.62
2001-09-05,15.8
2001-09-06,19.94
2001-09-07,21.56
2001-09-08,22.28
2001-09-09,25.34
2001-09-10,24.98
2001-09-11,25.16
2001-09-12,22.82
2001-09-13,18.14
2001-09-14,21.38
2001-09-15,19.4
2001-09-16,19.22
2001-09-17,69.8
2001-09-18,69.62
2001-09-19,69.26
2001-09-20,71.78
2001-09-21,71.42
2001-09-22,75.56
2001-09-23,72.68
2001-09-24,71.24
2001-09-25,51.98
2001-09-26,55.58
2001-09-27,58.46
2001-09-28,55.22
2001-09-29,68.54
2001-09-30,74.66
2001-10-01,73.94
2001-10-02,73.04
2001-10-03,72.5
2001-10-04,69.8
2001-10-05,67.1
2001-10-06,66.2
2001-10-07,59.18
2001-10-08,53.24
2001-10-09,51.08
2001-10-10,55.76
2001-10-11,45.5
2001-10-12,56.3
2001-10-13,61.88
2001-10-14,62.78
2001-10-15,66.38
2001-10-16,60.62
2001-10-17,51.44
2001-10-18,59.54
2001-10-19,64.58
2001-10-20,62.42
2001-10-21,56.66
2001-10-22,43.34
2001-10-23,41.72
2001-10-24,47.12
2001-10-25,57.74
2001-10-26,60.98
2001-10-27,53.24
2001-10-28,46.76
2001-10-29,46.76
2001-10-30,43.88
2001-10-31,40.46
2001-11-01,44.42
2001-11-02,51.98
2001-11-03,60.62
2001-11-04,58.1
2001-11-05,52.16
2001-11-06,42.08
2001-11-07,51.62
2001-11-08,56.66
2001-11-09,53.42
2001-11-10,51.98
2001-11-11,45.86
2001-11-12,45.14
2001-11-13,36.14
2001-11-14,44.78
2001-11-15,43.7
2001-11-16,41.9
2001-11-17,39.38
2001-11-18,45.68
2001-11-19,47.84
2001-11-20,39.38
2001-11-21,36.5
2001-11-22,36.14
2001-11-23,34.7
2001-11-24,31.82
2001-11-25,29.12
2001-11-26,29.84
2001-11-27,32.36
2001-11-28,27.68
2001-11-29,32.0
2001-11-30,31.64
2001-12-01,31.28
2001-12-02,35.42
2001-12-03,28.94
2001-12-04,25.34
2001-12-05,33.08
2001-12-06,34.34
2001-12-07,42.44
2001-12-08,40.64
2001-12-09,28.04
2001-12-10,27.14
2001-12-11,28.76
2001-12-12,33.62
2001-12-13,34.52
2001-12-14,28.4
2001-12-15,32.36
2001-12-16,34.7
2001-12-17,32.0
2001-12-18,30.2
2001-12-19,35.6
2001-12-20,33.62
2001-12-21,33.08
2001-12-22,30.92
2001-12-23,36.86
2001-12-24,43.34
2001-12-25,37.58
2001-12-26,39.56
2001-12-27,43.7
2001-12-28,41.36
2001-12-29,40.64
2001-12-30,41.18
2001-12-31,40.46
2002-01-01,39.02
2002-01-02,38.66
2002-01-03,35.06
2002-01-04,41.72
2002-01-05,36.68
2002-01-06,39.92
2002-01-07,43.88
2002-01-08,40.82
2002-01-09,45.32
2002-01-10,52.7
2002-01-11,55.58
2002-01-12,42.98
2002-01-13,43.52
2002-01-14,25.52
2002-01-15,31.1
2002-01-16,33.26
2002-01-17,31.28
2002-01-18,32.9
2002-01-19,29.12
2002-01-20,32.9
2002-01-21,28.94
2002-01-22,22.46
2002-01-23,28.94
2002-01-24,38.84
2002-01-25,32.72
2002-01-26,28.22
2002-01-27,25.7
2002-01-28,23.72
2002-01-29,25.7
2002-01-30,31.1
2002-01-31,34.7
2002-02-01,35.42
2002-02-02,44.06
2002-02-03,39.38
2002-02-04,51.98
2002-02-05,42.98
2002-02-06,43.34
2002-02-07,35.78
2002-02-08,33.8
2002-02-09,45.5
2002-02-10,50.9
2002-02-11,50.18
2002-02-12,48.92
2002-02-13,48.2
2002-02-14,41.9
2002-02-15,50.54
2002-02-16,44.24
2002-02-17,38.3
2002-02-18,37.22
2002-02-19,36.5
2002-02-20,40.82
2002-02-21,50.72
2002-02-22,50.72
2002-02-23,35.96
2002-02-24,41.36
2002-02-25,50.0
2002-02-26,51.98
2002-02-27,51.26
2002-02-28,33.44
2002-03-01,37.22
2002-03-02,41.72
2002-03-03,45.86
2002-03-04,47.3
2002-03-05,44.42
2002-03-06,41.0
2002-03-07,30.2
2002-03-08,30.74
2002-03-09,37.76
2002-03-10,36.68
2002-03-11,42.44
2002-03-12,34.88
2002-03-13,32.72
2002-03-14,36.32
2002-03-15,33.8
2002-03-16,27.86
2002-03-17,29.12
2002-03-18,35.42
2002-03-19,48.2
2002-03-20,56.12
2002-03-21,54.5
2002-03-22,51.26
2002-03-23,45.14
2002-03-24,43.88
2002-03-25,49.28
2002-03-26,49.82
2002-03-27,50.18
2002-03-28,52.34
2002-03-29,57.92
2002-03-30,61.16
2002-03-31,62.96
2002-04-01,60.26
2002-04-02,60.26
2002-04-03,62.42
2002-04-04,65.12
2002-04-05,55.22
2002-04-06,51.08
2002-04-07,53.24
2002-04-08,56.48
2002-04-09,41.54
2002-04-10,52.7
2002-04-11,50.18
2002-04-12,57.02
2002-04-13,57.56
2002-04-14,48.56
2002-04-15,35.6
2002-04-16,37.22
2002-04-17,37.76
2002-04-18,39.74
2002-04-19,46.04
2002-04-20,49.64
2002-04-21,54.68
2002-04-22,59.54
2002-04-23,52.7
2002-04-24,60.8
2002-04-25,57.2
2002-04-26,48.2
2002-04-27,41.54
2002-04-28,49.46
2002-04-29,45.32
2002-04-30,41.18
2002-05-01,57.02
2002-05-02,56.48
2002-05-03,53.96
2002-05-04,56.84
2002-05-05,51.26
2002-05-06,50.9
2002-05-07,42.98
2002-05-08,50.54
2002-05-09,47.84
2002-05-10,42.62
2002-05-11,58.1
2002-05-12,65.3
2002-05-13,59.54
2002-05-14,58.46
2002-05-15,54.14
2002-05-16,61.7
2002-05-17,61.52
2002-05-18,60.44
2002-05-19,52.16
2002-05-20,46.76
2002-05-21,42.08
2002-05-22,46.76
2002-05-23,57.2
2002-05-24,62.42
2002-05-25,63.86
2002-05-26,63.32
2002-05-27,59.72
2002-05-28,64.22
2002-05-29,69.8
2002-05-30,70.88
2002-05-31,72.14
2002-06-01,62.6
2002-06-02,60.98
2002-06-03,65.48
2002-06-04,67.82
2002-06-05,70.16
2002-06-06,66.02
2002-06-07,57.2
2002-06-08,43.7
2002-06-09,49.1
2002-06-10,58.46
2002-06-11,67.64
2002-06-12,74.84
2002-06-13,78.08
2002-06-14,73.22
2002-06-15,75.56
2002-06-16,70.52
2002-06-17,61.16
2002-06-18,57.2
2002-06-19,65.66
2002-06-20,71.78
2002-06-21,68.18
2002-06-22,71.24
2002-06-23,68.9
2002-06-24,74.12
2002-06-25,82.22
2002-06-26,82.76
2002-06-27,72.5
2002-06-28,68.18
2002-06-29,67.46
2002-06-30,70.88
2002-07-01,74.12
2002-07-02,77.36
2002-07-03,69.98
2002-07-04,68.18
2002-07-05,73.58
2002-07-06,75.74
2002-07-07,74.48
2002-07-08,73.4
2002-07-09,86.36
2002-07-10,91.22
2002-07-11,93.02
2002-07-12,93.02
2002-07-13,84.02
2002-07-14,79.34
2002-07-15,79.52
2002-07-16,78.62
2002-07-17,78.8
2002-07-18,77.54
2002-07-19,75.38
2002-07-20,81.5
2002-07-21,82.58
2002-07-22,78.62
2002-07-23,76.46
2002-07-24,76.1
2002-07-25,74.48
2002-07-26,76.82
2002-07-27,74.12
2002-07-28,78.26
2002-07-29,78.98
2002-07-30,77.36
2002-07-31,75.74
2002-08-01,77.54
2002-08-02,72.86
2002-08-03,70.16
2002-08-04,54.5
2002-08-05,57.38
2002-08-06,58.28
2002-08-07,64.4
2002-08-08,72.5
2002-08-09,78.8
2002-08-10,81.86
2002-08-11,80.6
2002-08-12,83.66
2002-08-13,83.66
2002-08-14,85.46
2002-08-15,85.28
2002-08-16,81.86
2002-08-17,77.0
2002-08-18,77.0
2002-08-19,71.06
2002-08-20,57.02
2002-08-21,63.68
2002-08-22,69.8
2002-08-23,64.22
2002-08-24,70.52
2002-08-25,70.7
2002-08-26,67.46
2002-08-27,68.36
2002-08-28,71.96
2002-08-29,73.58
2002-08-30,73.04
2002-08-31,74.3
2002-09-01,77.18
2002-09-02,79.34
2002-09-03,72.86
2002-09-04,65.3
2002-09-05,57.92
2002-09-06,56.84
2002-09-07,54.14
2002-09-08,60.98
2002-09-09,71.6
2002-09-10,75.56
2002-09-11,79.34
2002-09-12,79.88
2002-09-13,80.24
2002-09-14,75.74
2002-09-15,71.6
2002-09-16,63.68
2002-09-17,48.56
2002-09-18,63.86
2002-09-19,71.6
2002-09-20,70.88
2002-09-21,73.22
2002-09-22,75.92
2002-09-23,77.18
2002-09-24,74.12
2002-09-25,69.26
2002-09-26,69.62
2002-09-27,55.04
2002-09-28,62.78
2002-09-29,51.26
2002-09-30,45.5
2002-10-01,43.52
2002-10-02,53.06
2002-10-03,51.44
2002-10-04,55.4
2002-10-05,60.62
2002-10-06,68.72
2002-10-07,69.08
2002-10-08,66.38
2002-10-09,63.86
2002-10-10,56.12
2002-10-11,51.8
2002-10-12,62.96
2002-10-13,65.48
2002-10-14,67.1
2002-10-15,66.92
2002-10-16,67.82
2002-10-17,68.72
2002-10-18,65.84
2002-10-19,61.7
2002-10-20,54.68
2002-10-21,52.7
2002-10-22,54.32
2002-10-23,53.78
2002-10-24,49.46
2002-10-25,51.44
2002-10-26,50.72
2002-10-27,49.46
2002-10-28,45.86
2002-10-29,39.56
2002-10-30,36.5
2002-10-31,39.02
2002-11-01,42.44
2002-11-02,47.66
2002-11-03,51.62
2002-11-04,51.98
2002-11-05,54.5
2002-11-06,52.16
2002-11-07,42.62
2002-11-08,34.88
2002-11-09,35.96
2002-11-10,35.42
2002-11-11,40.1
2002-11-12,43.16
2002-11-13,42.44
2002-11-14,47.66
2002-11-15,50.9
2002-11-16,47.12
2002-11-17,41.0
2002-11-18,48.56
2002-11-19,56.3
2002-11-20,63.86
2002-11-21,57.38
2002-11-22,54.32
2002-11-23,48.56
2002-11-24,38.3
2002-11-25,45.86
2002-11-26,52.7
2002-11-27,55.58
2002-11-28,55.22
2002-11-29,54.5
2002-11-30,53.24
2002-12-01,45.5
2002-12-02,47.12
2002-12-03,45.14
2002-12-04,44.78
2002-12-05,50.9
2002-12-06,48.92
2002-12-07,49.64
2002-12-08,52.16
2002-12-09,40.1
2002-12-10,34.88
2002-12-11,35.24
2002-12-12,39.56
2002-12-13,37.22
2002-12-14,41.54
2002-12-15,34.34
2002-12-16,34.16
2002-12-17,29.66
2002-12-18,29.48
2002-12-19,30.92
2002-12-20,30.74
2002-12-21,30.74
2002-12-22,29.66
2002-12-23,30.38
2002-12-24,27.32
2002-12-25,31.28
2002-12-26,32.9
2002-12-27,36.5
2002-12-28,36.5
2002-12-29,29.48
2002-12-30,31.28
2002-12-31,31.1
2003-01-01,34.88
2003-01-02,38.3
2003-01-03,44.06
2003-01-04,43.34
2003-01-05,46.76
2003-01-06,53.6
2003-01-07,54.68
2003-01-08,51.98
2003-01-09,41.54
2003-01-10,39.74
2003-01-11,37.94
2003-01-12,36.32
2003-01-13,40.64
2003-01-14,37.76
2003-01-15,41.9
2003-01-16,54.32
2003-01-17,55.76
2003-01-18,58.46
2003-01-19,53.78
2003-01-20,48.74
2003-01-21,42.98
2003-01-22,40.82
2003-01-23,40.46
2003-01-24,41.72
2003-01-25,44.78
2003-01-26,46.58
2003-01-27,40.46
2003-01-28,44.42
2003-01-29,45.68
2003-01-30,45.5
2003-01-31,46.76
2003-02-01,39.92
2003-02-02,38.3
2003-02-03,37.58
2003-02-04,30.74
2003-02-05,39.92
2003-02-06,29.48
2003-02-07,41.72
2003-02-08,42.8
2003-02-09,47.84
2003-02-10,49.1
2003-02-11,56.48
2003-02-12,52.7
2003-02-13,39.2
2003-02-14,43.52
2003-02-15,39.38
2003-02-16,33.26
2003-02-17,38.12
2003-02-18,38.3
2003-02-19,39.56
2003-02-20,40.46
2003-02-21,44.42
2003-02-22,41.9
2003-02-23,42.62
2003-02-24,36.32
2003-02-25,41.9
2003-02-26,42.8
2003-02-27,33.08
2003-02-28,29.48
2003-03-01,38.3
2003-03-02,44.6
2003-03-03,38.66
2003-03-04,40.28
2003-03-05,43.34
2003-03-06,37.58
2003-03-07,39.56
2003-03-08,49.28
2003-03-09,38.3
2003-03-10,48.02
2003-03-11,47.84
2003-03-12,52.88
2003-03-13,46.04
2003-03-14,42.08
2003-03-15,38.48
2003-03-16,39.38
2003-03-17,39.74
2003-03-18,46.04
2003-03-19,49.82
2003-03-20,44.24
2003-03-21,43.34
2003-03-22,38.84
2003-03-23,40.28
2003-03-24,46.94
2003-03-25,41.36
2003-03-26,36.5
2003-03-27,41.72
2003-03-28,51.26
2003-03-29,60.08
2003-03-30,62.96
2003-03-31,54.14
2003-04-01,40.46
2003-04-02,34.16
2003-04-03,32.36
2003-04-04,34.88
2003-04-05,31.1
2003-04-06,36.14
2003-04-07,50.18
2003-04-08,52.34
2003-04-09,54.86
2003-04-10,51.8
2003-04-11,49.64
2003-04-12,39.2
2003-04-13,44.78
2003-04-14,41.54
2003-04-15,41.0
2003-04-16,41.72
2003-04-17,40.82
2003-04-18,42.62
2003-04-19,51.44
2003-04-20,53.78
2003-04-21,49.28
2003-04-22,48.2
2003-04-23,45.86
2003-04-24,39.2
2003-04-25,35.42
2003-04-26,40.1
2003-04-27,45.14
2003-04-28,43.88
2003-04-29,44.06
2003-04-30,46.04
2003-05-01,54.32
2003-05-02,51.8
2003-05-03,48.2
2003-05-04,38.66
2003-05-05,48.02
2003-05-06,46.22
2003-05-07,47.84
2003-05-08,36.68
2003-05-09,41.18
2003-05-10,50.18
2003-05-11,47.3
2003-05-12,53.42
2003-05-13,63.86
2003-05-14,62.42
2003-05-15,53.06
2003-05-16,48.92
2003-05-17,43.52
2003-05-18,43.52
2003-05-19,56.84
2003-05-20,62.96
2003-05-21,67.1
2003-05-22,71.96
2003-05-23,76.28
2003-05-24,72.86
2003-05-25,58.64
2003-05-26,63.32
2003-05-27,76.28
2003-05-28,73.94
2003-05-29,77.0
2003-05-30,62.96
2003-05-31,66.38
2003-06-01,68.9
2003-06-02,69.44
2003-06-03,73.58
2003-06-04,68.18
2003-06-05,75.74
2003-06-06,78.62
2003-06-07,79.34
2003-06-08,75.2
2003-06-09,69.62
2003-06-10,69.98
2003-06-11,67.28
2003-06-12,66.38
2003-06-13,63.68
2003-06-14,66.2
2003-06-15,70.52
2003-06-16,76.64
2003-06-17,83.3
2003-06-18,72.32
2003-06-19,63.5
2003-06-20,56.3
2003-06-21,56.84
2003-06-22,57.38
2003-06-23,55.58
2003-06-24,62.24
2003-06-25,69.08
2003-06-26,77.0
2003-06-27,77.9
2003-06-28,80.96
2003-06-29,75.38
2003-06-30,72.32
2003-07-01,68.72
2003-07-02,68.9
2003-07-03,70.16
2003-07-04,73.94
2003-07-05,75.02
2003-07-06,75.92
2003-07-07,74.66
2003-07-08,69.26
2003-07-09,81.32
2003-07-10,78.26
2003-07-11,79.16
2003-07-12,74.66
2003-07-13,69.62
2003-07-14,78.62
2003-07-15,77.54
2003-07-16,76.28
2003-07-17,82.04
2003-07-18,83.66
2003-07-19,86.0
2003-07-20,84.74
2003-07-21,88.34
2003-07-22,93.56
2003-07-23,88.88
2003-07-24,71.42
2003-07-25,73.76
2003-07-26,77.18
2003-07-27,80.78
2003-07-28,84.02
2003-07-29,87.08
2003-07-30,88.16
2003-07-31,85.1
2003-08-01,79.88
2003-08-02,59.0
2003-08-03,64.22
2003-08-04,73.58
2003-08-05,67.28
2003-08-06,66.74
2003-08-07,68.0
2003-08-08,69.62
2003-08-09,71.06
2003-08-10,71.6
2003-08-11,68.0
2003-08-12,70.7
2003-08-13,72.86
2003-08-14,79.7
2003-08-15,76.46
2003-08-16,74.84
2003-08-17,79.7
2003-08-18,
2003-08-19,80.6
2003-08-20,81.5
2003-08-21,68.18
2003-08-22,58.46
2003-08-23,68.9
2003-08-24,75.56
2003-08-25,78.44
2003-08-26,70.34
2003-08-27,73.94
2003-08-28,73.94
2003-08-29,74.3
2003-08-30,79.34
2003-08-31,80.6
2003-09-01,82.58
2003-09-02,81.68
2003-09-03,84.92
2003-09-04,80.6
2003-09-05,73.94
2003-09-06,73.4
2003-09-07,63.32
2003-09-08,54.86
2003-09-09,48.56
2003-09-10,60.08
2003-09-11,50.0
2003-09-12,60.44
2003-09-13,63.68
2003-09-14,70.16
2003-09-15,66.38
2003-09-16,49.28
2003-09-17,54.68
2003-09-18,65.48
2003-09-19,67.1
2003-09-20,73.58
2003-09-21,74.48
2003-09-22,77.54
2003-09-23,78.98
2003-09-24,77.36
2003-09-25,78.44
2003-09-26,81.86
2003-09-27,80.6
2003-09-28,78.44
2003-09-29,70.52
2003-09-30,69.8
2003-10-01,68.72
2003-10-02,64.4
2003-10-03,68.36
2003-10-04,66.02
2003-10-05,68.18
2003-10-06,68.36
2003-10-07,60.08
2003-10-08,60.98
2003-10-09,48.38
2003-10-10,50.18
2003-10-11,51.26
2003-10-12,48.56
2003-10-13,59.36
2003-10-14,54.86
2003-10-15,50.0
2003-10-16,60.8
2003-10-17,65.84
2003-10-18,62.78
2003-10-19,61.88
2003-10-20,62.24
2003-10-21,73.22
2003-10-22,64.04
2003-10-23,55.4
2003-10-24,59.9
2003-10-25,63.86
2003-10-26,69.44
2003-10-27,69.26
2003-10-28,65.12
2003-10-29,44.24
2003-10-30,28.58
2003-10-31,29.48
2003-11-01,36.14
2003-11-02,31.46
2003-11-03,28.94
2003-11-04,37.04
2003-11-05,36.5
2003-11-06,42.08
2003-11-07,40.46
2003-11-08,41.54
2003-11-09,39.2
2003-11-10,36.5
2003-11-11,41.9
2003-11-12,45.14
2003-11-13,43.52
2003-11-14,39.38
2003-11-15,35.6
2003-11-16,34.88
2003-11-17,35.42
2003-11-18,48.02
2003-11-19,47.12
2003-11-20,34.34
2003-11-21,26.24
2003-11-22,28.4
2003-11-23,41.9
2003-11-24,30.02
2003-11-25,28.04
2003-11-26,31.28
2003-11-27,44.42
2003-11-28,40.82
2003-11-29,37.94
2003-11-30,39.38
2003-12-01,40.28
2003-12-02,41.0
2003-12-03,41.9
2003-12-04,44.06
2003-12-05,40.1
2003-12-06,37.94
2003-12-07,30.74
2003-12-08,33.98
2003-12-09,33.26
2003-12-10,33.08
2003-12-11,33.62
2003-12-12,35.42
2003-12-13,34.88
2003-12-14,31.1
2003-12-15,30.74
2003-12-16,32.18
2003-12-17,48.2
2003-12-18,50.72
2003-12-19,48.74
2003-12-20,39.02
2003-12-21,39.38
2003-12-22,46.04
2003-12-23,39.38
2003-12-24,34.52
2003-12-25,29.3
2003-12-26,26.42
2003-12-27,25.7
2003-12-28,27.68
2003-12-29,28.58
2003-12-30,31.46
2003-12-31,29.66
2004-01-01,29.48
2004-01-02,26.06
2004-01-03,22.1
2004-01-04,23.18
2004-01-05,29.48
2004-01-06,33.44
2004-01-07,33.26
2004-01-08,39.92
2004-01-09,46.76
2004-01-10,44.78
2004-01-11,50.54
2004-01-12,43.52
2004-01-13,47.48
2004-01-14,48.02
2004-01-15,41.9
2004-01-16,44.78
2004-01-17,48.02
2004-01-18,39.56
2004-01-19,38.12
2004-01-20,36.32
2004-01-21,43.52
2004-01-22,51.98
2004-01-23,44.6
2004-01-24,33.44
2004-01-25,
2004-01-26,33.08
2004-01-27,34.7
2004-01-28,35.24
2004-01-29,40.46
2004-01-30,35.24
2004-01-31,29.48
2004-02-01,36.5
2004-02-02,35.78
2004-02-03,31.64
2004-02-04,35.42
2004-02-05,38.66
2004-02-06,36.32
2004-02-07,30.74
2004-02-08,39.02
2004-02-09,37.94
2004-02-10,50.54
2004-02-11,50.54
2004-02-12,51.8
2004-02-13,39.56
2004-02-14,38.66
2004-02-15,38.12
2004-02-16,38.66
2004-02-17,36.86
2004-02-18,39.02
2004-02-19,41.18
2004-02-20,38.84
2004-02-21,41.18
2004-02-22,40.82
2004-02-23,42.44
2004-02-24,39.92
2004-02-25,37.76
2004-02-26,36.68
2004-02-27,35.78
2004-02-28,39.74
2004-02-29,40.1
2004-03-01,40.82
2004-03-02,40.28
2004-03-03,34.34
2004-03-04,36.68
2004-03-05,37.76
2004-03-06,43.16
2004-03-07,62.96
2004-03-08,63.68
2004-03-09,57.38
2004-03-10,54.32
2004-03-11,60.08
2004-03-12,57.2
2004-03-13,56.66
2004-03-14,53.06
2004-03-15,55.94
2004-03-16,57.56
2004-03-17,58.28
2004-03-18,55.04
2004-03-19,51.62
2004-03-20,67.82
2004-03-21,65.12
2004-03-22,62.96
2004-03-23,52.7
2004-03-24,45.5
2004-03-25,36.5
2004-03-26,35.78
2004-03-27,46.94
2004-03-28,58.28
2004-03-29,60.62
2004-03-30,49.64
2004-03-31,41.18
2004-04-01,39.74
2004-04-02,49.64
2004-04-03,60.98
2004-04-04,60.62
2004-04-05,55.4
2004-04-06,56.66
2004-04-07,56.66
2004-04-08,58.82
2004-04-09,56.48
2004-04-10,59.9
2004-04-11,66.02
2004-04-12,57.92
2004-04-13,50.18
2004-04-14,42.44
2004-04-15,42.8
2004-04-16,42.62
2004-04-17,43.52
2004-04-18,38.12
2004-04-19,41.36
2004-04-20,37.76
2004-04-21,40.1
2004-04-22,51.62
2004-04-23,51.08
2004-04-24,59.0
2004-04-25,67.1
2004-04-26,69.26
2004-04-27,65.66
2004-04-28,47.48
2004-04-29,55.58
2004-04-30,64.76
2004-05-01,66.92
2004-05-02,68.72
2004-05-03,67.82
2004-05-04,63.86
2004-05-05,60.44
2004-05-06,53.78
2004-05-07,55.4
2004-05-08,51.44
2004-05-09,47.48
2004-05-10,43.16
2004-05-11,44.24
2004-05-12,51.08
2004-05-13,57.92
2004-05-14,60.26
2004-05-15,51.26
2004-05-16,56.12
2004-05-17,49.1
2004-05-18,43.7
2004-05-19,54.14
2004-05-20,54.14
2004-05-21,55.22
2004-05-22,51.26
2004-05-23,51.26
2004-05-24,55.4
2004-05-25,59.36
2004-05-26,62.6
2004-05-27,51.26
2004-05-28,45.32
2004-05-29,51.26
2004-05-30,59.9
2004-05-31,64.58
2004-06-01,65.66
2004-06-02,71.06
2004-06-03,69.44
2004-06-04,74.48
2004-06-05,63.32
2004-06-06,53.6
2004-06-07,48.74
2004-06-08,50.72
2004-06-09,42.98
2004-06-10,52.7
2004-06-11,58.1
2004-06-12,57.2
2004-06-13,65.12
2004-06-14,67.64
2004-06-15,64.94
2004-06-16,66.56
2004-06-17,71.6
2004-06-18,70.16
2004-06-19,69.44
2004-06-20,66.92
2004-06-21,73.94
2004-06-22,78.8
2004-06-23,
2004-06-24,74.66
2004-06-25,75.02
2004-06-26,73.76
2004-06-27,75.02
2004-06-28,76.64
2004-06-29,69.26
2004-06-30,73.94
2004-07-01,71.06
2004-07-02,73.4
2004-07-03,73.94
2004-07-04,75.56
2004-07-05,79.7
2004-07-06,79.34
2004-07-07,72.68
2004-07-08,72.5
2004-07-09,70.16
2004-07-10,69.8
2004-07-11,74.12
2004-07-12,77.72
2004-07-13,77.54
2004-07-14,77.9
2004-07-15,78.44
2004-07-16,82.4
2004-07-17,82.94
2004-07-18,76.64
2004-07-19,74.84
2004-07-20,76.1
2004-07-21,81.68
2004-07-22,82.76
2004-07-23,84.74
2004-07-24,87.8
2004-07-25,83.84
2004-07-26,78.98
2004-07-27,82.22
2004-07-28,82.04
2004-07-29,78.8
2004-07-30,78.8
2004-07-31,80.42
2004-08-01,81.14
2004-08-02,73.58
2004-08-03,72.5
2004-08-04,73.94
2004-08-05,67.82
2004-08-06,66.38
2004-08-07,75.02
2004-08-08,82.58
2004-08-09,84.38
2004-08-10,84.38
2004-08-11,87.62
2004-08-12,86.9
2004-08-13,86.54
2004-08-14,80.6
2004-08-15,77.54
2004-08-16,75.92
2004-08-17,75.56
2004-08-18,79.52
2004-08-19,82.4
2004-08-20,82.22
2004-08-21,75.02
2004-08-22,55.4
2004-08-23,59.36
2004-08-24,60.62
2004-08-25,56.3
2004-08-26,57.56
2004-08-27,69.08
2004-08-28,73.94
2004-08-29,77.36
2004-08-30,81.5
2004-08-31,77.18
2004-09-01,69.08
2004-09-02,58.64
2004-09-03,60.8
2004-09-04,71.42
2004-09-05,71.42
2004-09-06,75.92
2004-09-07,74.12
2004-09-08,72.86
2004-09-09,73.22
2004-09-10,73.04
2004-09-11,71.24
2004-09-12,60.98
2004-09-13,52.16
2004-09-14,60.26
2004-09-15,57.56
2004-09-16,64.04
2004-09-17,55.22
2004-09-18,49.1
2004-09-19,46.22
2004-09-20,50.36
2004-09-21,61.34
2004-09-22,68.9
2004-09-23,69.98
2004-09-24,75.2
2004-09-25,73.58
2004-09-26,71.06
2004-09-27,74.3
2004-09-28,73.94
2004-09-29,71.24
2004-09-30,67.28
2004-10-01,69.26
2004-10-02,69.98
2004-10-03,71.96
2004-10-04,70.88
2004-10-05,69.26
2004-10-06,64.94
2004-10-07,65.48
2004-10-08,64.58
2004-10-09,47.66
2004-10-10,50.72
2004-10-11,64.4
2004-10-12,64.58
2004-10-13,69.98
2004-10-14,72.86
2004-10-15,67.1
2004-10-16,62.96
2004-10-17,43.7
2004-10-18,41.0
2004-10-19,39.02
2004-10-20,47.84
2004-10-21,44.6
2004-10-22,39.2
2004-10-23,43.16
2004-10-24,47.48
2004-10-25,43.7
2004-10-26,42.8
2004-10-27,37.58
2004-10-28,51.26
2004-10-29,48.38
2004-10-30,44.6
2004-10-31,42.26
2004-11-01,51.26
2004-11-02,52.52
2004-11-03,34.7
2004-11-04,50.36
2004-11-05,61.52
2004-11-06,63.86
2004-11-07,66.02
2004-11-08,66.56
2004-11-09,48.56
2004-11-10,44.96
2004-11-11,47.66
2004-11-12,53.06
2004-11-13,44.78
2004-11-14,53.6
2004-11-15,48.2
2004-11-16,45.86
2004-11-17,51.08
2004-11-18,42.8
2004-11-19,36.86
2004-11-20,33.98
2004-11-21,44.06
2004-11-22,47.12
2004-11-23,43.52
2004-11-24,48.74
2004-11-25,37.58
2004-11-26,35.06
2004-11-27,32.36
2004-11-28,31.64
2004-11-29,42.8
2004-11-30,33.08
2004-12-01,34.16
2004-12-02,41.54
2004-12-03,49.82
2004-12-04,38.3
2004-12-05,31.64
2004-12-06,31.28
2004-12-07,35.78
2004-12-08,36.5
2004-12-09,43.34
2004-12-10,47.3
2004-12-11,47.84
2004-12-12,54.14
2004-12-13,45.14
2004-12-14,44.42
2004-12-15,48.74
2004-12-16,55.4
2004-12-17,56.3
2004-12-18,59.0
2004-12-19,50.9
2004-12-20,42.44
2004-12-21,41.54
2004-12-22,40.1
2004-12-23,43.16
2004-12-24,55.22
2004-12-25,41.72
2004-12-26,38.3
2004-12-27,44.78
2004-12-28,42.62
2004-12-29,36.5
2004-12-30,30.02
2004-12-31,28.76
2005-01-01,27.5
2005-01-02,32.36
2005-01-03,40.46
2005-01-04,25.7
2005-01-05,27.32
2005-01-06,28.04
2005-01-07,29.48
2005-01-08,26.42
2005-01-09,32.0
2005-01-10,40.64
2005-01-11,37.04
2005-01-12,34.7
2005-01-13,39.02
2005-01-14,46.4
2005-01-15,44.24
2005-01-16,49.64
2005-01-17,52.88
2005-01-18,59.72
2005-01-19,65.48
2005-01-20,53.24
2005-01-21,60.08
2005-01-22,60.44
2005-01-23,57.56
2005-01-24,54.32
2005-01-25,44.42
2005-01-26,42.44
2005-01-27,42.62
2005-01-28,37.04
2005-01-29,44.24
2005-01-30,52.16
2005-01-31,48.02
2005-02-01,54.5
2005-02-02,60.98
2005-02-03,63.32
2005-02-04,48.02
2005-02-05,40.1
2005-02-06,33.08
2005-02-07,40.28
2005-02-08,44.6
2005-02-09,44.78
2005-02-10,55.58
2005-02-11,52.34
2005-02-12,44.24
2005-02-13,34.16
2005-02-14,41.0
2005-02-15,49.46
2005-02-16,48.02
2005-02-17,53.42
2005-02-18,53.06
2005-02-19,42.8
2005-02-20,40.64
2005-02-21,50.18
2005-02-22,45.86
2005-02-23,54.68
2005-02-24,54.5
2005-02-25,54.14
2005-02-26,52.7
2005-02-27,49.28
2005-02-28,41.36
2005-03-01,44.96
2005-03-02,49.1
2005-03-03,51.08
2005-03-04,55.22
2005-03-05,54.5
2005-03-06,60.98
2005-03-07,62.06
2005-03-08,63.68
2005-03-09,64.4
2005-03-10,61.7
2005-03-11,64.58
2005-03-12,57.56
2005-03-13,47.48
2005-03-14,51.26
2005-03-15,52.7
2005-03-16,45.86
2005-03-17,45.14
2005-03-18,48.38
2005-03-19,41.18
2005-03-20,38.3
2005-03-21,42.98
2005-03-22,46.4
2005-03-23,42.26
2005-03-24,41.36
2005-03-25,44.24
2005-03-26,45.86
2005-03-27,38.3
2005-03-28,39.74
2005-03-29,37.58
2005-03-30,43.52
2005-03-31,57.92
2005-04-01,47.3
2005-04-02,51.26
2005-04-03,40.28
2005-04-04,39.92
2005-04-05,55.22
2005-04-06,62.78
2005-04-07,43.34
2005-04-08,40.82
2005-04-09,46.76
2005-04-10,54.5
2005-04-11,48.92
2005-04-12,38.66
2005-04-13,40.46
2005-04-14,45.68
2005-04-15,56.3
2005-04-16,55.4
2005-04-17,44.6
2005-04-18,43.34
2005-04-19,41.9
2005-04-20,49.64
2005-04-21,50.9
2005-04-22,60.62
2005-04-23,50.72
2005-04-24,50.0
2005-04-25,53.06
2005-04-26,64.58
2005-04-27,58.46
2005-04-28,55.22
2005-04-29,55.76
2005-04-30,55.76
2005-05-01,53.78
2005-05-02,52.52
2005-05-03,58.64
2005-05-04,56.48
2005-05-05,53.24
2005-05-06,43.16
2005-05-07,50.72
2005-05-08,45.68
2005-05-09,42.44
2005-05-10,46.04
2005-05-11,54.32
2005-05-12,57.56
2005-05-13,63.68
2005-05-14,62.24
2005-05-15,50.54
2005-05-16,44.78
2005-05-17,42.08
2005-05-18,43.88
2005-05-19,54.14
2005-05-20,50.18
2005-05-21,60.62
2005-05-22,58.64
2005-05-23,60.26
2005-05-24,62.6
2005-05-25,69.08
2005-05-26,74.66
2005-05-27,76.28
2005-05-28,68.36
2005-05-29,60.8
2005-05-30,68.36
2005-05-31,59.54
2005-06-01,54.32
2005-06-02,56.3
2005-06-03,63.68
2005-06-04,64.22
2005-06-05,47.3
2005-06-06,44.96
2005-06-07,47.48
2005-06-08,55.58
2005-06-09,59.0
2005-06-10,59.9
2005-06-11,59.9
2005-06-12,61.52
2005-06-13,67.82
2005-06-14,65.3
2005-06-15,67.1
2005-06-16,55.76
2005-06-17,51.62
2005-06-18,53.78
2005-06-19,65.66
2005-06-20,69.44
2005-06-21,67.64
2005-06-22,
2005-06-23,71.78
2005-06-24,73.94
2005-06-25,63.68
2005-06-26,64.58
2005-06-27,61.52
2005-06-28,63.86
2005-06-29,71.96
2005-06-30,77.0
2005-07-01,75.56
2005-07-02,70.34
2005-07-03,72.14
2005-07-04,75.38
2005-07-05,76.64
2005-07-06,73.76
2005-07-07,75.02
2005-07-08,72.86
2005-07-09,64.76
2005-07-10,66.74
2005-07-11,75.74
2005-07-12,80.96
2005-07-13,78.26
2005-07-14,83.66
2005-07-15,84.38
2005-07-16,82.4
2005-07-17,82.76
2005-07-18,83.48
2005-07-19,81.86
2005-07-20,83.66
2005-07-21,83.3
2005-07-22,74.84
2005-07-23,79.16
2005-07-24,75.02
2005-07-25,75.38
2005-07-26,80.24
2005-07-27,84.02
2005-07-28,80.78
2005-07-29,80.24
2005-07-30,80.78
2005-07-31,82.4
2005-08-01,76.64
2005-08-02,75.02